Location: Keppel Henge
(44.7900°N, 80.9447°W)
Time: 20:41:45
(UTC-05:00)

Vanguard 1 Rocket - Pass Details

Date: 24 October 2017
Orbit: 655 x 4222 km, 34.3° (Epoch: 24 November)

Event Time Altitude Azimuth Distance (km) Brightness Sun altitude
Rises 06:54:32 0° 230° (SW) 6,025 11.2 -10.7°
Reaches altitude 10° 06:59:55 10° 220° (SW) 4,357 10.5 -9.8°
Maximum altitude 07:08:11 27° 169° (S) 2,285 9.7 -8.3°
Drops below altitude 10° 07:13:27 10° 113° (ESE) 2,687 11.4 -7.4°
Sets 07:15:54 0° 100° (E) 3,381 13.1 -7.0°
